Location: Canyam�s
(41.5996°N, 2.4450°E)
Time: 22:26:26
(UTC+00:00)

Resurs 01 Rocket - Pass Details

Date: 06 June 2020
Orbit: 633 x 645 km, 98.0° (Epoch: 11 July)

Event Time Altitude Azimuth Distance (km) Brightness Sun altitude
Exits shadow 20:47:55 - 185° (S) 2,151 3.9 -13.2°
Reaches altitude 10° 20:48:12 10° 186° (S) 2,035 3.8 -13.2°
Maximum altitude 20:52:29 47° 261° (W) 857 2.5 -13.8°
Drops below altitude 10° 20:56:48 10° 335° (NNW) 2,047 5.5 -14.3°
Sets 20:59:05 0° 342° (NNW) 2,960 6.4 -14.6°
